Preview of NWS' New Version of Forecast
This preview is not operational and should not be used for support decisions.

Regional Weather Roundup (RWR)

Issued by National Weather Service (NWS)

                            
000
ASUS43 KLSX 230757
RWRMO 

WEATHER SUMMARY FOR MISSOURI
NATIONAL WEATHER SERVICE SPRINGFIELD MO
300 AM CDT TUE JUL 23 2019

NOTE: "FAIR" INDICATES FEW OR NO CLOUDS BELOW 12,000 FEET WITH NO
       SIGNIFICANT WEATHER AND/OR OBSTRUCTIONS TO VISIBILITY.
       CURRENT SKY AND/OR WEATHER CONDITIONS ARE NOT AVAILABLE FOR
       CHILLICOTHE AND FARMINGTON.

MOZ001>031-035>038-043-044-053-054-230900-
...NORTHERN AND WESTERN MISSOURI...
  
CITY           SKY/WX    TMP DP  RH WIND       PRES   REMARKS
KANSAS CTY INT CLEAR     60  56  86 N7        30.24S                  
LEE'S SUMMIT   CLEAR     64  54  69 N8        30.23S                  
ST JOSEPH      CLEAR     60  55  83 N7        30.25S                  
CHILLICOTHE      N/A     63  57  81 N3        30.23S                  
     
$$
MOZ066>068-077>081-088>096-101>105-230900-
...SOUTHWEST MISSOURI...
  
CITY           SKY/WX    TMP DP  RH WIND       PRES   REMARKS
SPRINGFIELD    CLEAR     66  61  84 N6        30.17R                  
JOPLIN         CLEAR     65  61  87 N7        30.19S                  
               
$$
MOZ032>034-039>042-045>050-055>058-069>072-230900-
...CENTRAL MISSOURI...  
  
CITY           SKY/WX    TMP DP  RH WIND       PRES   REMARKS
COLUMBIA       NOT AVBL                                               
ROLLA          CLEAR     64  60  87 N5        30.16S                  
SEDALIA        CLEAR     62  62 100 NW7       30.20S                  
WARRENSBURG    CLEAR     63  55  77 NW7       30.21S                  
               
$$
MOZ051-052-059>065-230900-
...EAST CENTRAL MISSOURI...
  
CITY           SKY/WX    TMP DP  RH WIND       PRES   REMARKS
ST LOUIS INTL  CLEAR     68  56  65 NE7       30.14R                  
                   
$$
MOZ072>076-082>087-097>100-106>115-230900-
...SOUTH CENTRAL AND SOUTHEAST MISSOURI...
  
CITY           SKY/WX    TMP DP  RH WIND       PRES   REMARKS
CAPE GIRARDEAU FAIR      68  56  65 N10       30.07R                  
POPLAR BLUFF   FAIR      68  67  96 N7        30.07S                  
WEST PLAINS    CLEAR     66  62  87 N5        30.14S                  
                                       
$$